STARLINK-3672, 51974

Orbit data source: Space-Track

STARLINK-3672, 51974 is a payload satellite owned by SpaceX/Seattle (US) in LEO that was launched on Wed, 09 Mar 2022 UTC via an FALCON 9 launch vehicle from the Air Force Eastern Test Range (AFETR). Payload-class satellites include a variety of spacecraft equipped with specific instruments for various scientific and technological missions. These include communications satellites like Starlink; space stations such as the ISS; scientific satellites like the Hubble; Earth observation satellites from companies like Planet Labs, Umbra, and HawkEye 360; GPS; miniature CubeSats for education and research; and military/defense satellites.

Loading next visibility...
Identifier
51974, 2022-025U
Orbit
LEO
Country
Flag of USUS
Related business
Manufacturer
SpaceX/Seattle
Mission
Operational Commercial Communications
Bus & Motor
STARLINK, Unknown motor
Mass
297 kg wet, ~275 kg dry
Launch date (UTC)
2022-03-09 (4 years ago)
Launch vehicle
FALCON 9
Launch site
Air Force Eastern Test Range (AFETR)
Object type
Payload
Rocket body
Debris
Shape & HBR
Box + 1 Pan, 10.1 m
Radar Cross Section
13.562 m², Large (>1 m²)

Expand to show TLE details & history
Last TLE update: 17 hours ago

TLE from 17 hours ago
0 STARLINK-3672
1 51974U 22025U   25346.90142739  .00003520  00000-0  25509-3 0  9996
2 51974  53.0540  60.4905 0001278  86.0459 274.0676 15.06397153207831
Epoch: 2025-12-12T21:38Z
TLE epoch observation values (Epoch: 2025-12-12T21:38:03.326Z)
Latitude
-0.00003°
Longitude
14.14022°
Altitude
548.037 km
Speed
7.589 km/s
True Right ascension
04h 01m 57s
True Declination
0° 00' 00"
Sunlit
Object was in full shadow at epoch
Visualization orbit readout
Latitude
Unknown
Longitude
Unknown
Altitude
Unknown
Speed
Unknown
Apparent Right ascension
Unknown
Apparent Declination
Unknown
Sunlit
N/A
Visualization observer readout
Local Sidereal Time
13:08:23
Azimuth
Unknown
Elevation
Unknown
Doppler factor
Unknown
Orbital elements
Apogee altitude
548.376 km
Perigee altitude
546.606 km
Semi-major axis
6,925.628 km
Eccentricity
0.00013
Inclination
53.054°
RAAN
60.4905°
Arg. of periapsis
86.0459°
True anomaly
274.05299°
Mean anomaly
274.0676°
Eccentric anomaly
274.0603°
Mean motion
3.76578 °/min
Orbital period
95.6 mins
BSTAR
0.00025509
Loading maneuver chart data...
Computing Atmospheric mass density...
Loading historical data...
Loading historical data...
Loading historical data...
Loading historical data...
Loading historical data...
Loading historical data...
Loading historical data...

Documentation

Showing up to 5 results
|